TITAN 3C TRANSTAGE DEB, 43513

Orbit data source: Space-Track

TITAN 3C TRANSTAGE DEB, 43513 is space debris in GEO originally from a launch on Sun, 09 Feb 1969 UTC launched from the Air Force Eastern Test Range (AFETR). Debris objects in space refer to the collection of defunct objects orbiting the Earth. Examples of debris include non-operational satellites, rocket bodies, and fragments generated from explosions, collisions, or faulty payload assembly.

Not visible in the next 10 days
Identifier
43513, 1969-013R
Orbit
GEO
Country
Flag of USUS
Related business
Manufacturer
Martin Marietta
Mission
Spacecraft
Bus & Motor
Unknown
Mass
Unknown
Launch date (UTC)
1969-02-09 (57 years ago)
Launch vehicle
Unknown
Launch site
Air Force Eastern Test Range (AFETR)
Object type
Payload
Rocket body
Debris
Shape & HBR
Unknown shape, 1.1 m
Radar Cross Section
RCS unknown

Expand to show TLE details & history
Last TLE update: 1 month ago

TLE from 1 month ago
0 TITAN 3C TRANSTAGE DEB
1 43513U 69013R   25357.85037567 -.00000063  00000-0  00000-0 0  9998
2 43513   1.1730 151.1096 0062391 203.6260 155.2491  0.95264556 26718
Epoch: 2025-12-23T20:24Z
TLE epoch observation values (Epoch: 2025-12-23T20:24:32.457Z)
Latitude
Longitude
111.51092°
Altitude
37,497.444 km
Speed
3.006 km/s
True Right ascension
10h 01m 05s
True Declination
0° 00' 00"
Sunlit
Object was in daylight at epoch
Visualization orbit readout
Latitude
Unknown
Longitude
Unknown
Altitude
Unknown
Speed
Unknown
Apparent Right ascension
Unknown
Apparent Declination
Unknown
Sunlit
N/A
Visualization observer readout
Local Sidereal Time
16:09:14
Azimuth
Unknown
Elevation
Unknown
Doppler factor
Unknown
Orbital elements
Apogee altitude
37,524.685 km
Perigee altitude
36,980.254 km
Semi-major axis
43,630.607 km
Eccentricity
0.00624
Inclination
1.173°
RAAN
151.1096°
Arg. of periapsis
203.626°
True anomaly
155.54632°
Mean anomaly
155.2491°
Eccentric anomaly
155.39792°
Mean motion
0.23815 °/min
Orbital period
1,511.63 mins
BSTAR
0
Loading maneuver chart data...
Computing Atmospheric mass density...

Documentation

Showing up to 5 results
|